This is the latest recevied weather packets stored in our database for station/object IZ8NVY-15. If no packets are shown the sender has not sent any weather packets the latest 10 day(s).
| Time | Temp. | Humidity | Pressure | Rain* | Wind** | Luminosity | Snow |
|---|---|---|---|---|---|---|---|
| 1778032516 | 15.56° C | 77% | 978.7 hPa | - | - | - | - |
| 1778028914 | 15° C | 76% | 979 hPa | - | - | - | - |
| 1778025314 | 14.44° C | 73% | 979.1 hPa | - | - | - | - |
| 1778021714 | 14.44° C | 68% | 979.5 hPa | - | - | - | - |
| 1778018110 | 15° C | 57% | 979.8 hPa | - | - | - | - |
| 1778000109 | 19.44° C | 48% | 979.7 hPa | - | - | - | - |
| 1777974892 | 23.89° C | 53% | 981.5 hPa | - | - | - | - |
| 1777971290 | 21.67° C | 55% | 981.4 hPa | - | - | - | - |
| 1777967689 | 20° C | 56% | 981.5 hPa | - | - | - | - |
| 1777964097 | 18.33° C | 57% | 981.5 hPa | - | - | - | - |
| 1777956885 | 15° C | 59% | 981 hPa | - | - | - | - |
| 1777953284 | 13.33° C | 60% | 980.7 hPa | - | - | - | - |
| 1777949688 | 13.33° C | 59% | 980.7 hPa | - | - | - | - |
| 1777946081 | 13.33° C | 59% | 981.3 hPa | - | - | - | - |
| 1777942480 | 12.78° C | 58% | 981.8 hPa | - | - | - | - |
| 1777938879 | 12.78° C | 58% | 982 hPa | - | - | - | - |
| 1777935278 | 13.33° C | 56% | 982.2 hPa | - | - | - | - |
| 1777931677 | 13.33° C | 55% | 982.6 hPa | - | - | - | - |
| 1777928076 | 13.89° C | 54% | 982.7 hPa | - | - | - | - |
| 1777924474 | 15.56° C | 53% | 982.6 hPa | - | - | - | - |
| 1777917273 | 18.33° C | 51% | 981.9 hPa | - | - | - | - |
| 1777913671 | 20.56° C | 48% | 981.8 hPa | - | - | - | - |
| 1777910070 | 22.22° C | 45% | 981.8 hPa | - | - | - | - |
| 1777906471 | 24.44° C | 43% | 981.8 hPa | - | - | - | - |
| 1777902867 | 25° C | 44% | 982 hPa | - | - | - | - |
* Rain since midnight (hover to see other rain measurements)
** Current wind speed in m/s (hover to see current wind gust speed)